Regional Weather Roundup
Issued by NWS

Home | Current Version | Previous Version | Text Only | Print | Product List | Glossary On
Versions: 1 2 3 4 5 6 7 8 9 10 11 12 13 14 15 16 17 18 19 20 21 22 23 24 25 26 27 28 29 30 31 32 33 34 35 36 37 38 39 40 41 42 43 44 45 46 47 48 49 50
000
ASUS43 KDTX 191710
RWRMI
MICHIGAN HOURLY REGIONAL WEATHER ROUNDUP
NATIONAL WEATHER SERVICE DETROIT/PONTIAC MI
1200 PM EST SUN FEB 19 2017

NOTE: "FAIR" INDICATES FEW OR NO CLOUDS BELOW 12,000 FEET WITH NO
SIGNIFICANT WEATHER AND/OR OBSTRUCTION TO VISIBILITY.

MIZ047>049-052>055-059>063-066>070-074>076-081>083-191800-
SOUTHEAST LOWER MICHIGAN

CITY           SKY/WX    TMP DP  RH WIND       PRES   REMARKS
ADRIAN         SUNNY     57  35  43 W8        30.03R
ALMA           SUNNY     53  31  41 NW7       30.03R
ANN ARBOR      SUNNY     58  33  39 VRB7      30.01R
BAD AXE        SUNNY     49  35  58 NW9       29.99R
CARO           SUNNY     51  36  55 N7        29.99R
DETROIT CITY   SUNNY     59  32  36 VRB7      30.00R
DETROIT        MOSUNNY   60  34  37 NW8       30.01R
FLINT          SUNNY     53  35  50 W6        30.01S
GROSSE ILE     SUNNY     58  35  41 W5        30.00R
HILLSDALE      SUNNY     55  34  44 W9        30.02S
HOWELL         SUNNY     55  33  41 W7        30.01R

CITY           SKY/WX    TMP DP  RH WIND       PRES   REMARKS
JACKSON        SUNNY     57  33  40 W7        30.02S
LAMBERTVILLE   SUNNY     58  38  47 W7        30.02S
LANSING        SUNNY     54  32  43 NW8       30.03R
LAPEER         FAIR      53  34  48 W6        29.99S
MASON          SUNNY     55  35  47 W6        30.03R
MONROE         SUNNY     55  42  59 W8        30.01S
MT. CLEMENS    MOSUNNY   59  35  41 VRB5      29.97R
PONTIAC        MOSUNNY   57  32  38 NW9       29.98S
PORT HOPE        N/A     49  33  54 NW13      29.97R
PORT HURON     SUNNY     55  36  47 NW6       29.98S
TRI CITIES     SUNNY     53  34  48 W6        30.01R
MIDLAND        FAIR      55  31  40 W8        30.00R
TROY           SUNNY     59  29  31 W9        30.00S
SAGINAW HB     SUNNY     54  32  43 NW6       30.00R
$$
MIZ043>046-050>051-056>058-064>065-071>073-077>080-191800-
SOUTHWEST LOWER MICHIGAN

CITY           SKY/WX    TMP DP  RH WIND       PRES   REMARKS
BATTLE CREEK   SUNNY     56  33  42 W8        30.04R
BENTON HARBOR  SUNNY     52  32  46 NW6       30.07R
BIG RAPIDS     SUNNY     52  32  46 W6        30.02R
COLDWATER      SUNNY     57  32  38 SW6       30.03S
FREMONT        FAIR      52  30  43 CALM      30.04R
HOLLAND        SUNNY     55  35  47 W6        30.05R
GRAND RAPIDS   MOSUNNY   56  32  40 W6        30.04R
IONIA          FAIR      55  31  41 W3        30.03R
KALAMAZOO      SUNNY     58  30  34 NW7       30.05R
LUDINGTON      SUNNY     51  34  52 N6        30.04R
MARSHALL       SUNNY     58  34  39 W5        30.03S
MOUNT PLEASANT SUNNY     51  34  50 NW5       30.01S
MUSKEGON       MOSUNNY   55  33  43 W5        30.05R
SOUTH HAVEN    SUNNY     51  34  51 NW5       30.06R
$$
MIZ016>042-191800-
NORTHERN LOWER MICHIGAN

CITY           SKY/WX    TMP DP  RH WIND       PRES   REMARKS
ALPENA         SUNNY     48  33  56 NW13      29.98R
BEAVER ISLAND  CLOUDY    42  32  67 NW3       30.03R
BELLAIRE       SUNNY     46  31  54 NW5       30.02S
CADILLAC       SUNNY     50  31  48 NW8       30.00S
CHARLEVOIX     CLOUDY    43  33  67 NW7       30.05S
FRANKFORT      SUNNY     49  34  56 W5        30.04R
GAYLORD        SUNNY     46  28  49 VRB7      29.99R
GRAYLING       SUNNY     46  31  56 NW7       30.01R
HARBOR SPRINGS SUNNY     37  32  81 SW8       30.01R WCI  31
HOUGHTON LAKE  SUNNY     45  31  58 W9        30.01R
MANISTEE       SUNNY     48  33  56 NW8       30.04R
OSCODA         SUNNY     53  31  44 NW12G18   29.96S
PELLSTON       SUNNY     41  28  60 NW7       30.01R
ROGERS CITY    SUNNY     45  30  55 N10       29.99S
TRAVERSE CITY  MOSUNNY   47  31  53 NE7       30.03R
$$
MIZ007>008-015-191800-
EASTERN UPPER MICHIGAN

CITY           SKY/WX    TMP DP  RH WIND       PRES   REMARKS
KINROSS        SUNNY     40  29  64 NW12      29.98R WCI  33
MACKINAC ISLAN SUNNY     39  31  73 W3        29.99R
NEWBERRY       SUNNY     40  28  62 N14       29.99R WCI  33
S. S. MARIE    SUNNY     43  29  57 NW12      29.97R
MUNISING         N/A     39  32  76 NW8       30.03R WCI  33
$$
MIZ004>006-011>014-085-191800-
CENTRAL UPPER MICHIGAN

CITY           SKY/WX    TMP DP  RH WIND       PRES   REMARKS
MANISTIQUE     CLOUDY    41  33  71 NW3       30.02R
ESCANABA       SUNNY     45  31  58 SE5       30.04R
MENOMINEE      SUNNY     49  31  49 SE7       30.05R
SAWYER-GWINN   SUNNY     37  28  70 N5        30.03R WCI  34
$$
MIZ001>003-009>011-084-191800-
WESTERN UPPER MICHIGAN

CITY           SKY/WX    TMP DP  RH WIND       PRES   REMARKS
IRON MOUNTAIN  MOSUNNY   42  28  57 CALM      30.02R
HOUGHTON       CLOUDY    40  27  59 CALM      30.02R
COPPER HARBOR    N/A     39  31  72 N5        30.04R
IRONWOOD       MOSUNNY   44  31  60 E5        30.00F
$$

ABBREVIATIONS USED IN REMARKS
   TC - TEMPERATURE IN CELSIUS
  WCI - WIND CHILL INDEX
   HX - HEAT INDEX
  VSB - VISIBILITY




USA.gov is the U.S. government's official web portal to all federal, state and local government web resources and services.